Flag for Brazil Weather past 2 weeks in Fortaleza, Ceará, Brazil

Now
77 °F

Passing clouds.


Feels Like: 78 °F
Forecast: 77 / 88 °F
Wind: No wind

Location: Fortaleza Aeropor-To


UV Index: 3 (Moderate)

Visibility: N/A


Pressure: 29.89 "Hg

Humidity: 89%

Dew point: 73 °F

Location of FortalezaLocation

Historic Weather in Fortaleza

°F

Fortaleza temperature yesterday

Maximum temperature yesterday: 82 °F (at 3:00 PM)
Minimum temperature yesterday: 75 °F (at 5:00 AM)
Average temperature yesterday: 78 °F

Past Weeks' High & Low Weather Summary

 TemperatureHumidityPressure
High88 °F (Apr 14, 12:00 PM)100% (Apr 9, 8:00 AM)29.98 "Hg (Apr 9, 8:00 AM)
Low39 °F (Apr 9, 8:00 AM)40% (Apr 7, 8:00 AM)29.77 "Hg (Apr 14, 2:00 PM)
Average80 °F77%29.87 "Hg
* Reported Midnight between Apr 3 and Apr 4 — Midnight between Apr 18 and Apr 19, Fortaleza, Weather by CustomWeather, © 2014

Note: Actual official high and low records may vary slightly from our data, if they occured in-between our weather recording intervals... More about our weather records

Advertising

Historic Weather Conditions — Data for Previous 24 hours

 ConditionsComfort  
Time TempWeatherWind HumidityBarometerVisibility
12:00 AM
Apr 19
77 °FPassing clouds.No wind89%29.89 "HgN/A
11:00 PM
Apr 18
79 °FPassing clouds.No wind84%29.89 "HgN/A
10:00 PM79 °FPassing clouds.5 mph84%29.86 "HgN/A
9:00 PM79 °FPassing clouds.6 mph84%29.86 "HgN/A
8:00 PM79 °FPassing clouds.2 mph84%29.86 "HgN/A
7:00 PM79 °FClear.6 mph84%29.83 "Hg10 mi
6:00 PM81 °FClear.6 mph79%29.80 "Hg10 mi
5:00 PM82 °FPassing clouds.9 mph74%29.80 "HgN/A
4:00 PM82 °FScattered clouds.10 mph74%29.80 "HgN/A
3:00 PM82 °FPartly sunny.8 mph74%29.80 "HgN/A
2:00 PM81 °FPartly sunny.7 mph79%29.80 "HgN/A
1:00 PM79 °FBroken clouds.3 mph79%29.83 "HgN/A
12:00 PM77 °FLight rain. Mostly cloudy.12 mph79%N/A4 mi
11:00 AM81 °FBroken clouds.8 mph74%29.89 "HgN/A
10:00 AM77 °FPartly sunny.5 mph89%29.89 "HgN/A
9:00 AM75 °FBroken clouds.2 mph89%29.89 "HgN/A
8:00 AM77 °FPartly sunny.8 mph89%29.89 "HgN/A
7:00 AM75 °FPartly sunny.5 mph94%29.89 "HgN/A
6:00 AM75 °FLight rain. Partly sunny.8 mph94%29.86 "Hg3 mi
5:00 AM75 °FPassing clouds.6 mph94%29.83 "HgN/A
4:00 AM77 °FPassing clouds.6 mph89%29.83 "HgN/A
3:00 AM77 °FPassing clouds.6 mph89%29.83 "HgN/A
2:00 AM77 °FPassing clouds.5 mph89%29.83 "HgN/A
1:00 AM77 °FPassing clouds.6 mph89%29.83 "HgN/A
Weather by CustomWeather, © 2014

See weather overview